Aérodrome :
LOGIN :

S'inscrire | Disclaimer

   EN    FR    IT 

 










Légende :    VFR   VFR Marginal   IFR   IFR Intensif   IFR Très Intensif
Visi : 
Plafond : 
>= 8 km
>= 3000ft
5 à 8 km
1000 à 3000 ft
1500m à 5 km
500 à 1000 ft
800 à 1500m
200 à 500 ft
< 800m
< 200 ft
Symboles :   Orages  Brouillard  Fortes neiges  Fortes précipitations  Vent > 20 kt
SIGMETs :   Divers  Orages  Givrage  Turbulence  Onde Orograph.  Cendres Volcan.







- Altitude de l'aérodrome : 885 ft
- Code IATA : BAS
- Voir les cartes d'approche


LFSB - Bale-Mulhouse

DERNIER METAR :
  • 221900Z 26003KT CAVOK 17/08 Q1021 NOSIG

METARs EXPIRÉS :
  • 221830Z 28003KT CAVOK 17/09 Q1021 NOSIG
  • 221800Z 29004KT CAVOK 17/08 Q1021 NOSIG
  • 221730Z 31005KT CAVOK 18/08 Q1021 NOSIG
  • 221700Z 29004KT CAVOK 18/07 Q1020 NOSIG
  • 221630Z 29005KT 260V320 CAVOK 19/07 Q1020 NOSIG

TAF TAF LFSB
Valide du 22 à 18h jusqu'au 23 à 18h UTC


221700Z 2218/2318 VRB03KT CAVOK
BECMG 2300/2303 25012KT
TEMPO 2303/2311 25015G25KT
BECMG 2311/2313 25015G30KT
BECMG 2313/2315 FEW060CB
TEMPO 2315/2318 26020G40KT 4000 SHRA
PROB30
TEMPO 2316/2318 29025G50KT 1500 TSRA SCT030CB
Météo : +33 3 89 90 31 11
Pas de NOTAMs connus pour ce terrain.



MET'MAP, la Météo Aéronautique d'un coup d'oeil ! - Copyright ORBIFLY Décembre 2007 - Disclaimer

ORBIFLY MET'MAP TEAM :

Programmation & Développement : Alexandra Zaïnal
Conception & Développement : Baudouin d'Aumeries
Co-Programmation & Développement : Marc-Olivier Méhu
Soutien technique & logistique : Manuel Goepfert

Contact : metmap@orbifly.com




SOURCES & CREDITS :

   NOAA